Theta_e
361 365 363 360 358 355 359 360 361 357 359 357 356 355 350 348 349 349 356 367 364 363 364 364 364 363 361 360 361 362 360 360 360 357 355 354 356 358 357 355 356 357 356
367 365 362 356 356 358 365 348 351 360 359 356 354 355 354 351 350 351 352 361 365 363 363 365 366 366 364 363 362 362 360 358 358 360 360 358 358 357 357 357 357 357 359
367 366 360 358 355 360 364 352 348 360 356 357 356 354 354 352 347 349 352 355 363 365 363 364 366 366 365 365 364 362 361 360 358 358 359 361 359 358 359 358 359 358 357
369 368 358 357 358 358 357 358 358 357 356 355 354 353 350 353 350 350 349 351 353 357 363 364 364 364 366 366 365 365 362 361 359 358 359 359 360 360 359 360 360 359 358
365 365 360 359 365 359 359 357 356 356 351 353 352 352 351 351 351 348 347 350 351 354 358 361 363 363 365 366 365 365 365 363 361 360 360 360 359 358 359 359 360 360 359
368 367 362 361 362 357 354 350 350 354 354 350 352 348 354 352 351 350 348 350 351 353 352 355 360 359 364 365 363 364 365 365 364 362 361 360 360 359 358 358 358 359 358
368 369 362 359 356 353 349 338 342 347 348 351 346 345 349 352 352 351 352 349 347 349 350 353 356 357 359 361 360 361 363 365 364 363 363 361 360 359 359 358 357 357 357
367 367 362 359 359 353 346 344 340 341 345 347 340 339 336 341 346 350 350 349 348 348 348 351 352 355 355 357 358 360 361 363 364 364 363 360 359 358 358 357 356 356 356
370 367 366 362 359 358 353 348 344 344 342 345 345 341 335 334 340 345 348 349 349 349 349 350 350 349 355 351 357 361 361 358 362 364 363 361 358 357 357 357 356 356 355
367 365 364 364 362 360 355 355 353 353 350 343 347 346 343 342 335 333 342 348 350 352 353 352 350 352 353 353 357 359 360 356 359 362 363 362 360 358 357 357 358 357 355
364 363 364 361 364 362 360 356 357 357 354 350 346 345 341 339 339 337 333 338 344 350 351 352 350 350 354 354 355 355 356 357 356 358 360 362 363 361 360 360 360 360 359
348 351 355 355 357 357 355 353 353 355 352 352 350 349 345 340 336 336 335 338 340 345 349 350 351 350 350 350 358 357 357 355 354 353 355 358 360 360 362 362 362 362 362
343 345 354 352 349 353 351 351 349 349 348 348 348 348 351 347 347 344 339 337 337 342 343 346 351 352 352 351 351 356 359 354 350 348 349 351 353 356 358 359 360 362 362
345 349 349 348 348 348 348 348 346 345 344 344 346 348 347 348 350 347 343 339 334 333 336 332 333 352 353 352 352 355 352 351 350 346 345 345 347 349 351 352 354 355 356
340 342 345 345 345 346 346 346 342 342 343 342 343 344 344 345 347 347 348 346 340 332 321 325 322 338 351 352 353 351 350 352 349 345 343 342 342 344 345 346 347 347 347
347 346 345 345 344 344 344 344 341 341 340 339 339 339 339 339 340 343 344 345 345 338 327 323 326 331 336 346 349 353 354 353 347 345 343 340 340 341 341 342 343 343 343
347 346 345 344 343 343 342 341 340 339 335 333 335 335 334 334 335 338 341 342 342 342 331 330 326 331 329 336 344 348 352 354 351 343 342 340 338 338 338 339 339 340 340
343 343 344 344 343 341 341 338 336 333 331 331 330 331 330 331 331 334 337 338 339 341 340 338 339 336 331 333 337 342 348 351 354 346 341 339 337 336 335 335 335 334 334
342 344 343 342 340 339 338 336 332 331 329 329 328 327 325 325 323 326 331 335 338 340 340 339 340 340 334 335 337 340 340 341 351 350 341 339 337 335 334 332 331 329 327
343 342 342 341 340 338 335 333 327 326 325 325 326 325 324 322 322 325 330 333 335 336 337 339 340 342 344 345 344 338 337 345 343 350 350 341 337 339 336 333 332 331 326
342 342 341 338 337 335 329 328 326 324 323 322 322 322 322 323 325 326 330 332 333 334 335 337 338 341 343 343 342 343 341 343 343 348 340 339 336 340 344 336 340 335 329
342 340 337 336 333 331 324 324 325 322 321 320 318 320 320 323 324 325 327 330 332 333 335 335 337 337 340 343 344 343 342 338 338 340 334 333 332 331 347 348 340 335 327
342 338 337 333 334 331 323 322 323 320 318 319 318 317 318 322 324 325 330 329 329 331 334 338 336 338 339 342 343 340 340 338 337 343 338 337 347 346 349 350 338 331 329
340 336 334 336 333 331 322 319 319 319 320 317 316 316 318 318 321 329 332 333 335 336 336 338 340 342 345 345 347 345 342 344 345 346 347 336 341 340 347 349 338 332 328
338 335 336 334 333 330 318 316 317 319 319 318 320 319 318 320 325 325 332 333 335 338 334 330 332 333 331 328 334 342 339 338 336 338 346 341 341 336 339 340 346 329 326
337 336 333 336 325 327 318 314 316 319 318 317 321 325 325 324 323 320 329 334 334 337 340 340 338 334 330 336 327 340 338 335 336 333 340 338 339 340 337 345 343 338 335
Wind_Speed
4 3 4 3 5 4 4 1 3 4 2 5 4 5 5 8 8 3 6 16 14 15 15 16 16 15 15 14 14 14 13 13 12 12 12 11 10 10 9 9 9 9 11
3 3 3 4 6 3 4 9 18 6 3 6 5 5 6 6 7 6 1 6 15 16 16 18 18 17 16 16 15 14 14 14 12 12 13 13 12 11 11 11 11 10 9
6 5 4 5 5 2 3 8 18 5 6 6 5 4 5 8 7 7 5 4 8 17 17 18 18 19 18 17 16 16 15 15 14 14 13 14 13 13 13 13 13 12 12
3 3 5 6 6 4 4 4 4 7 7 6 5 4 6 6 8 7 6 5 5 8 15 20 20 20 20 19 18 17 17 16 16 15 15 14 14 15 15 14 15 15 14
6 5 5 5 6 5 3 5 4 4 5 7 7 9 7 6 6 8 8 8 9 6 7 16 20 21 21 20 20 19 18 18 17 17 17 16 15 15 15 15 16 16 15
3 4 4 5 5 6 6 11 8 4 5 5 5 6 4 7 7 8 9 8 8 10 10 9 10 12 20 21 22 21 21 20 19 19 18 17 17 16 16 16 16 16 17
4 4 2 5 5 4 2 11 8 6 7 9 6 8 10 9 10 9 10 10 11 11 10 10 6 8 11 24 23 23 22 22 21 20 19 18 17 18 17 17 17 17 17
4 3 5 5 7 6 7 10 10 7 5 2 7 9 6 7 8 11 11 11 13 10 10 10 10 9 10 7 14 22 23 22 22 21 20 18 18 18 18 18 18 18 18
7 7 6 6 8 6 5 9 8 12 9 7 11 6 4 5 5 7 14 12 13 9 10 8 10 12 9 9 10 18 25 23 22 22 21 20 19 18 18 18 18 18 18
8 7 7 7 6 5 8 8 8 9 8 8 4 9 7 3 5 12 12 7 12 9 7 5 6 9 11 10 13 14 20 22 22 22 23 22 19 18 18 18 17 18 17
4 6 5 6 2 4 5 7 8 7 6 8 7 5 6 9 11 12 10 13 11 5 5 6 9 6 6 11 10 14 16 21 21 19 19 19 18 17 18 17 17 17 16
4 5 6 5 3 4 5 5 6 7 7 8 8 9 8 6 8 10 12 11 15 13 7 10 10 9 9 7 12 16 18 17 19 20 20 20 19 19 19 18 17 17 16
4 5 5 4 5 5 7 7 7 8 9 9 11 9 8 10 10 10 10 12 11 6 15 13 9 10 11 10 10 17 15 18 17 17 19 18 18 18 19 17 17 18 17
4 6 6 7 7 7 7 7 7 7 9 9 12 10 9 10 9 10 11 11 10 7 4 24 14 11 13 12 13 16 13 19 19 19 19 17 17 16 18 17 17 16 16
5 6 7 8 8 9 8 8 7 9 10 10 11 11 10 10 10 11 10 11 12 11 7 10 17 14 14 10 15 18 16 17 20 19 18 17 15 16 16 15 15 15 15
5 6 7 8 8 9 10 9 8 9 11 10 11 12 12 12 13 10 10 11 10 10 8 10 13 6 5 13 17 10 11 14 19 19 18 16 15 15 15 15 16 15 15
6 7 8 9 9 9 9 9 10 11 12 14 14 14 15 17 15 14 13 11 11 10 10 7 6 6 7 19 15 12 10 10 7 16 16 15 16 16 16 16 17 16 15
7 9 9 8 9 8 8 8 10 13 15 17 17 16 18 14 18 18 15 16 12 14 12 15 9 7 12 20 10 13 6 11 9 15 17 18 18 18 18 17 17 16 15
8 9 9 9 8 9 10 9 11 12 15 17 19 20 21 20 22 17 19 16 13 11 14 12 11 10 12 8 8 5 6 17 11 20 11 15 17 19 19 17 17 17 16
7 7 8 9 8 8 10 8 11 16 18 19 21 22 22 22 23 21 18 18 15 13 13 13 12 11 10 12 8 7 6 8 8 15 13 1 5 16 20 19 20 20 18
6 7 8 8 9 9 7 10 13 18 20 22 23 23 21 24 33 27 16 15 15 13 13 12 12 10 9 9 8 7 9 8 12 13 4 3 3 9 13 19 18 20 19
6 7 9 9 10 8 10 12 19 20 23 23 22 22 19 27 26 31 33 30 23 16 14 12 11 11 13 9 8 6 5 5 4 4 4 9 5 10 11 11 18 20 20
5 7 8 9 8 9 10 17 28 21 24 22 19 19 18 15 20 19 22 26 28 26 25 13 15 14 11 9 6 7 5 4 5 4 6 7 4 4 7 12 19 20 19
4 6 8 7 7 8 12 18 30 21 21 21 18 17 17 17 17 18 15 14 15 16 17 14 14 13 10 7 3 3 3 3 4 3 3 5 3 7 4 9 19 20 23
5 6 6 6 6 9 14 16 26 20 21 23 15 13 14 15 19 15 13 13 12 13 13 19 16 13 11 7 5 1 3 3 7 6 5 5 5 4 1 12 16 16 22
6 5 7 5 4 9 14 18 22 15 20 17 20 14 18 16 14 6 7 9 10 10 10 11 10 9 6 6 7 6 5 7 5 6 4 5 6 4 5 12 12 5 5
Wind_Direction
259 219 221 276 297 150 203 253 342 289 270 198 243 271 254 277 294 285 163 172 166 188 198 200 199 206 212 212 219 220 224 218 217 215 219 220 220 219 225 225 228 226 225
264 319 246 237 247 269 75 52 340 295 260 244 195 250 256 266 273 276 244 163 185 194 203 207 202 204 212 215 218 223 223 226 221 220 217 221 220 223 226 228 231 235 231
209 243 283 283 287 211 148 154 205 256 284 263 238 227 270 246 246 262 269 220 185 198 203 214 210 205 207 216 215 218 223 226 224 224 223 221 221 223 226 229 232 233 232
214 246 283 282 267 267 184 202 213 219 216 250 257 231 229 237 250 234 229 227 238 203 203 210 212 214 208 209 214 217 218 222 227 225 226 225 225 225 227 230 232 234 234
202 207 243 276 298 314 286 221 237 247 253 232 218 235 228 237 251 262 227 220 224 229 180 203 213 214 217 213 215 215 221 220 221 225 228 228 227 228 227 229 231 233 234
265 235 248 266 297 319 339 337 315 302 269 233 308 309 205 233 236 245 253 245 223 223 223 204 199 213 215 217 217 218 215 220 220 221 225 227 226 228 229 228 229 232 234
253 273 296 295 296 294 108 265 294 310 312 311 328 294 287 291 241 238 243 233 227 226 229 207 201 202 206 217 215 219 218 218 219 221 223 224 224 226 227 228 228 229 232
233 249 251 243 259 263 202 229 251 282 271 301 287 280 264 275 259 250 247 248 232 224 225 214 215 208 208 188 210 218 222 221 221 219 223 222 222 225 227 228 229 228 230
253 228 234 245 250 265 249 228 228 244 259 250 213 232 286 249 300 268 235 237 240 228 223 221 212 221 213 218 194 211 217 220 222 220 222 223 220 220 225 229 230 232 232
248 235 226 236 248 267 268 250 253 255 269 263 234 229 230 275 300 306 304 265 240 220 206 223 234 212 208 214 217 210 207 216 219 219 222 222 222 219 221 227 230 233 233
321 266 276 306 282 244 269 287 284 280 279 274 257 235 225 227 229 256 276 284 288 266 226 216 231 237 226 218 215 216 215 204 213 219 227 226 222 220 222 225 227 232 233
331 349 29 0 333 319 311 312 303 287 264 269 266 266 247 218 211 235 241 262 268 283 261 226 218 219 226 227 218 213 208 198 205 213 219 223 223 220 224 224 228 233 235
322 324 12 332 318 328 321 314 305 298 290 280 267 262 256 254 249 238 242 246 249 270 289 265 221 209 214 221 224 212 205 205 210 213 220 220 220 220 223 222 228 235 236
305 340 337 344 327 307 302 303 299 298 294 292 296 288 263 262 257 248 242 244 257 242 310 299 295 259 209 211 209 206 214 205 203 207 213 218 217 218 224 223 226 230 235
324 317 325 311 309 301 305 302 296 298 297 291 283 283 286 285 267 262 249 236 241 250 212 239 279 268 317 236 195 212 207 202 205 205 211 218 215 218 222 223 224 224 228
290 304 300 294 296 296 295 299 302 304 306 295 291 290 291 292 289 277 265 254 244 240 238 216 251 265 299 289 316 236 193 191 198 202 206 211 213 217 222 224 227 223 228
309 296 293 286 283 294 305 302 301 296 303 300 293 287 291 293 285 278 270 254 245 224 230 248 235 294 330 304 300 300 335 289 190 195 203 212 213 216 218 223 225 223 225
303 290 288 299 300 297 301 295 296 302 298 295 293 286 285 283 283 284 270 258 248 242 224 237 226 228 217 246 277 273 246 309 221 190 203 208 216 221 218 217 221 216 217
277 282 294 299 313 310 302 302 298 318 312 301 289 283 280 282 279 271 266 262 249 239 241 238 238 217 229 236 230 205 231 276 288 309 215 223 217 225 223 215 219 217 217
291 306 322 312 313 312 299 310 323 320 306 293 285 279 277 273 267 269 262 257 253 247 237 232 235 228 221 238 229 220 218 221 251 277 265 316 311 254 228 218 215 217 217
314 330 314 322 307 301 311 340 326 311 298 293 284 272 264 259 262 261 266 258 252 247 236 232 230 221 220 230 224 217 208 222 223 223 226 256 243 278 251 231 233 222 217
332 340 317 314 319 312 335 327 322 313 306 291 288 277 265 262 258 260 258 252 249 242 232 226 230 222 216 218 227 212 193 178 212 200 184 245 212 245 249 229 216 220 208
343 326 323 314 326 331 327 327 319 315 304 292 282 278 271 262 260 260 250 245 237 234 231 234 232 223 220 213 221 226 216 187 212 192 190 247 246 282 259 234 214 212 209
339 321 302 323 338 328 332 322 328 316 321 308 289 274 268 267 259 257 259 251 235 225 221 219 232 241 225 204 222 206 240 256 266 246 177 257 261 271 318 303 270 216 200
322 304 306 333 337 337 333 324 338 326 332 325 302 278 265 262 261 246 249 251 238 229 207 204 213 215 228 193 204 73 248 223 257 250 219 222 243 225 21 279 259 209 201
288 294 313 304 38 341 334 332 340 341 338 330 337 307 271 250 270 274 256 242 237 226 198 195 214 230 218 214 199 215 246 244 244 292 239 227 253 214 231 225 240 223 181